STARLINK-34509

Last updated on Thu Jul 03 2025 00:02:07 GMT+0000 (Coordinated Universal Time)

1 64484U 25133N 25183.58335648 -.01182493 00000+0 -57940-2 0 9997 2 64484 53.1553 210.7970 0000749 64.7053 299.1768 15.84021610 2722
UTC large
Height (km)
Speed (km/s)
/
Latitude / Longitude
Inclination (degrees)
Orbital Period (minutes)
Azimuth
Elevation
Range (km)
Doppler Factor

Next 0 passes for location: London (51.5072 / 0.1276)

Sorry there are no passes over London.